Tracking 35275 objects as of 9-Sep-2026
HD Live streaming from Space Station
objects crossing your sky now

STARLINK-34265

Track STARLINK-34265 now!
10-day predictions
STARLINK-34265 is classified as:


NORAD ID: 64192
Int'l Code: 2025-113Y
Launch date: May 28, 2025
Source: United States (US)
Launch site: AIR FORCE EASTERN TEST RANGE (AFETR)
Your satellite tracking list
Your tracking list is empty




NASA's NSSDC Master Catalog

Two Line Element Set (TLE):
1 64192U 25113Y   26251.51827484  .00024480  00000-0  73273-3 0  9992
2 64192  53.1606 321.4389 0001166  79.2846 280.8288 15.34424701 73024
Source of the keplerian elements: AFSPC